Theta_e
329 328 328 327 327 326 326 327 327 326 325 325 325 324 324 323 322 321 320 319 319 319
327 328 328 328 328 327 327 328 326 326 325 325 324 324 323 322 321 321 320 321 320 320
324 326 328 328 327 326 326 327 325 325 325 324 324 324 323 322 322 321 321 321 319 319
318 322 324 326 327 326 326 325 325 324 324 323 323 322 322 323 322 320 320 318 317 317
317 318 319 322 324 325 325 324 324 324 322 322 323 323 323 321 320 319 317 316 315 315
315 316 317 320 321 322 322 322 323 324 323 323 323 322 321 321 318 317 316 315 314 314
312 315 317 318 319 319 321 322 323 323 323 321 320 320 319 318 316 315 314 314 313 311
309 312 314 314 316 318 317 320 318 317 317 317 317 316 315 314 314 312 307 303 303 303
305 306 306 306 309 309 309 310 310 309 308 309 307 301 302 306 307 302 301 299 297 297
298 297 298 298 299 299 301 301 302 302 302 302 302 298 298 297 303 302 301 298 296 292
292 292 294 295 296 296 295 297 298 299 299 299 296 295 296 294 299 299 298 296 293 292
290 290 291 292 295 295 293 293 292 291 291 291 290 294 294 294 292 291 291 291 292 291
290 289 289 292 293 291 290 290 288 287 289 288 289 293 293 292 289 288 287 287 288 286
289 289 290 288 291 290 288 287 288 287 286 287 288 290 293 292 288 288 286 285 284 285
Wind_Speed
18 14 14 15 13 12 12 12 13 15 16 17 16 15 13 11 11 12 11 14 11 8
15 16 16 17 14 11 12 10 11 14 16 16 16 15 14 11 12 11 11 11 11 10
12 14 15 14 13 14 13 11 10 13 14 15 15 14 13 11 11 11 10 8 9 9
7 10 11 12 13 12 11 11 12 11 12 13 13 12 12 14 12 13 10 8 11 11
7 7 8 10 11 11 10 8 10 11 11 12 12 12 14 14 11 11 11 10 10 12
8 7 7 9 9 9 9 9 9 10 12 14 14 13 12 12 11 12 11 11 12 13
7 7 7 7 8 7 8 9 10 12 12 12 12 11 11 11 11 11 11 12 12 10
8 7 7 8 8 8 8 9 7 8 9 9 10 9 10 10 10 11 9 6 7 7
7 7 8 7 7 7 7 7 7 7 7 8 5 10 13 11 9 8 9 9 6 5
8 8 8 7 6 7 8 6 8 8 8 10 9 14 14 14 8 9 9 8 8 6
8 8 7 7 8 8 4 7 8 9 9 7 6 10 11 12 7 6 7 8 8 8
8 8 7 9 10 7 6 6 6 4 6 7 6 11 11 10 6 6 6 5 6 8
8 8 9 11 10 5 4 5 4 4 6 7 7 13 12 8 4 5 4 3 5 9
9 10 10 8 8 6 4 4 6 7 5 6 6 9 14 13 7 6 5 5 4 4
Wind_Direction
219 215 217 216 211 216 215 215 204 201 207 211 212 214 211 212 213 212 215 219 215 217
224 223 224 224 222 222 218 215 201 199 203 210 212 213 212 215 215 209 212 217 215 217
228 227 228 229 225 222 226 211 199 202 199 205 210 211 209 214 217 209 215 212 212 217
236 227 228 230 231 230 220 212 204 200 200 204 207 207 206 214 214 213 210 200 207 218
243 226 217 229 230 228 225 210 200 196 196 200 205 205 211 217 210 208 205 200 201 217
246 241 236 230 226 216 210 205 200 196 201 206 213 216 214 211 198 196 199 205 214 216
254 246 232 227 229 227 222 219 210 208 207 204 205 207 203 198 194 198 206 211 209 202
253 247 247 234 221 216 218 225 211 201 207 203 204 208 200 198 198 199 196 188 187 188
258 246 245 255 258 218 211 210 201 206 195 193 198 190 191 187 191 180 181 182 183 156
255 247 242 243 239 241 214 190 204 198 192 204 201 195 195 183 184 182 182 175 169 161
247 247 242 238 234 240 235 225 218 216 213 206 208 182 184 177 164 168 175 171 171 167
242 244 230 234 234 217 211 211 210 205 186 179 175 180 177 162 154 157 165 155 161 165
259 234 227 230 230 211 200 207 175 178 181 176 180 188 185 164 140 153 153 146 151 162
265 241 231 226 218 221 202 175 184 182 175 175 178 184 183 174 166 165 165 166 161 155